#timestamp,LO_Frequency,Hit,StdDev 
1550754015.7,286047001.8,P
1550754035.5,286047002.6,P
1550754055.4,286047001.5,P
1550754075.2,286047001.4,Y
1550754095.1,286046999.8,P
1550754096.0,286046999.8,N
1550754115.8,286047003.0,N
1550754135.6,286047002.3,N
1550754155.5,286047000.7,N
1550754175.3,286047002.0,N
1550754195.1,286047001.0,N
1550754215.9,286047002.8,N
1550754235.7,286047000.2,N
1550754255.6,286046999.4,N
1550754275.4,286046998.6,N
1550754295.2,286046999.4,N
1550754315.1,286046998.3,N
1550754316.0,286046998.3,N
1550754335.8,286046998.8,N
1550754355.6,286046998.7,N
1550754375.5,286047000.0,N
1550754395.3,286047002.1,N
1550754415.2,286047002.4,N
1550754435.9,286047004.3,N
1550754455.7,286047003.9,N
1550754475.6,286047002.8,N
1550754495.4,286047000.4,N
1550754515.2,286046998.9,N
1550754535.1,286047001.0,N
1550754536.0,286047001.0,N
1550754555.8,286046998.4,N
1550754575.7,286047001.1,N
1550754595.5,286046998.2,N
1550754615.3,286046998.4,N
1550754635.2,286046999.4,N
1550754655.0,286046996.8,N
1550754655.9,286046996.8,N
1550754675.8,286046997.1,N
1550754695.6,286046999.4,N
1550754715.4,286046997.4,N
1550754735.3,286046997.6,N
1550754755.1,286046995.1,N
1550754775.9,286046995.0,N
1550754795.7,286046995.0,N
1550754815.5,286046994.9,N
1550754835.4,286046995.5,N
1550754855.2,286046993.3,N
1550754875.0,286046997.9,N
1550754875.9,286046997.9,N
1550754895.8,286046999.2,N
1550754915.6,286046996.8,N
1550754935.5,286046996.5,N
1550754955.3,286046999.5,N
1550754975.1,286046999.2,N
1550754995.9,286046999.3,N
1550755015.7,286046996.8,N
1550755035.6,286046999.4,N
1550755055.4,286046998.8,N
1550755075.2,286046997.0,N
1550755095.1,286046999.4,N
1550755096.0,286046999.4,N
1550755115.8,286046999.4,N
1550755135.7,286046998.3,N
1550755155.5,286046999.0,N
1550755175.3,286046996.6,N
1550755195.2,286046999.6,N
1550755215.0,286046996.9,N
1550755215.9,286046996.9,N
1550755235.7,286046999.1,N
1550755255.6,286046997.7,N
1550755275.4,286046995.0,N
1550755295.3,286046996.2,N
1550755315.1,286046996.4,N
1550755335.8,286046991.7,Y
1550755355.7,286046996.4,P
1550755375.5,286046993.9,P
1550755395.4,286046993.6,P
1550755415.2,286046995.5,N
1550755435.0,286046997.4,N
1550755435.9,286046997.4,N
1550755455.8,286046997.2,N
1550755475.6,286046998.0,N
1550755495.4,286046998.0,N
1550755515.3,286046995.3,Y
1550755535.1,286047002.4,P
1550755555.9,286047002.5,N
1550755575.7,286047002.4,N
1550755595.5,286047000.0,N
1550755615.4,286046999.9,N
1550755635.2,286047000.1,N
1550755655.1,286047002.3,N
1550755656.0,286047002.3,N
1550755675.8,286046999.9,N
1550755695.6,286046999.9,N
1550755715.5,286047002.2,N
1550755735.3,286047003.9,N
1550755755.1,286047001.4,N
1550755775.9,286047001.8,N
1550755795.7,286047001.9,N
1550755815.6,286047003.9,N
1550755835.4,286047001.4,N
1550755855.2,286047002.3,N
1550755875.1,286047001.9,N
1550755876.0,286047001.9,N
1550755895.8,286047003.9,N
1550755915.7,286047001.8,N
1550755935.5,286047001.7,N
1550755955.3,286047004.3,N
1550755975.2,286047001.5,N
1550755995.0,286047001.7,N
1550755995.9,286047001.7,N
1550756015.8,286047001.6,N
1550756035.6,286047002.4,N
1550756055.4,286047000.2,N
1550756075.3,286047002.0,N
1550756095.1,286047002.4,N
1550756115.8,286046999.7,N
1550756135.7,286047002.1,N
1550756155.5,286047002.6,N
1550756175.4,286047001.7,N
1550756195.2,286047004.4,Y
1550756215.0,286047002.3,P
1550756215.9,286047002.3,P
1550756235.8,286047002.5,P
1550756255.6,286047002.7,Y
1550756275.5,286046998.8,P
1550756295.3,286046999.6,N
1550756315.1,286046997.3,N
1550756335.9,286046997.9,N
1550756355.7,286046996.5,N
1550756375.5,286046998.4,N
1550756395.4,286046999.4,N
1550756415.2,286046999.5,N
1550756435.1,286046999.5,N
1550756436.0,286046999.5,N
1550756455.8,286046996.5,N
1550756475.6,286046998.4,N
1550756495.5,286046998.9,N
1550756515.3,286046998.4,N
1550756535.1,286046998.2,N
1550756555.9,286046998.1,N
1550756575.7,286046998.1,N
1550756595.6,286046998.6,N
1550756615.4,286046999.6,N
1550756635.2,286046998.6,N
1550756655.1,286046998.2,N
1550756656.0,286046998.2,N
1550756675.8,286046998.4,N
1550756695.7,286046998.4,N
1550756715.5,286046998.6,N
1550756735.3,286046998.3,N
1550756755.2,286046999.1,N
1550756775.0,286046999.5,N
1550756775.9,286046999.5,N
1550756795.8,286046996.8,Y
1550756815.6,286046997.2,P
1550756835.4,286046996.8,P
1550756855.3,286046996.7,P
1550756875.1,286046997.3,Y
1550756895.8,286046998.2,P
1550756915.7,286046998.1,P
1550756935.5,286047001.4,P
1550756955.4,286046999.7,N
1550756975.2,286047002.8,N
1550756995.0,286047000.9,N
1550756995.9,286047000.9,N
1550757015.8,286046998.2,N
1550757035.6,286046998.8,N
1550757055.5,286046998.5,N
1550757075.3,286046998.7,N
1550757095.1,286046998.9,N
1550757115.9,286046996.9,N
1550757135.7,286046997.7,N
1550757155.5,286046995.3,N
1550757175.4,286046996.8,N
1550757195.2,286046997.0,N
1550757215.1,286046998.4,N
1550757216.0,286046998.4,N
1550757235.8,286046999.0,N
1550757255.6,286046996.6,N
1550757275.5,286046998.6,N
1550757295.3,286046999.2,N
1550757315.2,286046999.5,N
1550757335.9,286046998.9,N
1550757355.7,286046998.8,N
1550757375.6,286046999.6,N
1550757395.4,286046996.6,N
1550757415.2,286046996.9,N
1550757435.1,286046997.6,N
1550757436.0,286046997.6,N
1550757455.8,286046999.6,N
1550757475.7,286046996.5,N
1550757495.5,286046996.9,N
1550757515.3,286046999.4,N
1550757535.2,286046999.3,N
1550757555.0,286046999.0,N
1550757555.9,286046999.0,N
1550757575.7,286046998.3,N
1550757595.6,286046998.1,N
